User: anonymous   Login
Location: Bothwell
(42.3833°S, 147.0000°E)
Time: 00:00:26
(UTC+10:00)
Language:

PRISM - Orbit

View from above orbital plane
View from above orbital plane
View from above satellite
View from above satellite

Ground track
Ground track

The orbit data is extracted from the following two-line orbital elements,

1 33493U 09002B   22267.92757822  .00006324  00000-0  50465-3 0  9992
2 33493  98.2408 260.2343 0013481 212.3295 147.7103 15.00613268743892
Epoch (UTC): 24 September 2022 22:15:42
Eccentricity: 0.0013481
inclination: 98.2408°
perigee height: 555 km
apogee height: 574 km
right ascension of ascending node: 260.2343°
argument of perigee: 212.3295°
revolutions per day: 15.00613268
mean anomaly at epoch: 147.7103°
orbit number at epoch: 74389

The dashed part of the orbit path shows where the satellite is in the earth's shadow,  

DLR